Change the Weather History Date:

Wednesday, March 6, 2013

  Actual Average Record
Temperature  
Mean Temperature 42 °F 38 °F  
Max Temperature 51 °F 48 °F 62 °F (2007)
Min Temperature 33 °F 28 °F 19 °F (2002)
Degree Days  
Heating Degree Days 23 27  
Month to date heating degree days 140 165  
Since 1 July heating degree days 4248 4736  
Cooling Degree Days 0 0  
Month to date cooling degree days 0 0  
Year to date cooling degree days 0 0  
Moisture  
Dew Point 32 °F    
Average Humidity 72    
Maximum Humidity 82    
Minimum Humidity 61    
Precipitation  
Precipitation 0.10 in 0.04 in 0.24 in (2002)
Month to date precipitation 0.10 0.23  
Year to date precipitation 2.33 3.56  
Sea Level Pressure  
Sea Level Pressure 29.71 in    
Wind  
Wind Speed 5 mph (SSE)    
Max Wind Speed 21 mph    
Max Gust Speed 26 mph    
Visibility 9 miles    
Events Rain , Thunderstorm    
T = Trace of Precipitation, MM = Missing Value Source: NWS Daily Summary

Daily Weather History Graph

Daily Weather History Graph

Search for Another Location

Airport or City:

Trip Planner

Search our weather history database for the weather conditions in past years. The results will help you decide how hot, cold, wet, or windy it might be!

Date:

Astronomy

Mar. 06, 2013 Rise Set
Actual Time 6:19 AM PST 5:42 PM PST
Civil Twilight 5:48 AM PST 6:12 PM PST
Nautical Twilight 5:13 AM PST 6:48 PM PST
Astronomical Twilight 4:37 AM PST 7:24 PM PST
Moon 2:51 AM PST (3/6) 12:11 PM PST (3/6)
Length of Visible Light 12h 24m
Length of Day
11h 22m
Waning Crescent, 29% of the Moon is Illuminated
Mar 6
Waning Crescent
Mar 11
New
Mar 19
First Quarter
Mar 27
Full
Apr 2
Last Quarter

Hourly Weather History & Observations

Time (PST) Temp. Windchill Dew Point Humidity Pressure Visibility Wind Dir Wind Speed Gust Speed Precip Events Conditions
12:53 AM 34.0 °F - 28.0 °F 79% 29.84 in 10.0 mi Calm Calm - N/A   Mostly Cloudy
1:53 AM 34.0 °F - 28.0 °F 79% 29.81 in 10.0 mi Calm Calm - N/A   Overcast
2:53 AM 35.1 °F - 28.9 °F 78% 29.76 in 10.0 mi Calm Calm - N/A   Overcast
3:53 AM 35.1 °F - 28.0 °F 76% 29.74 in 10.0 mi Calm Calm - N/A   Overcast
4:53 AM 35.1 °F - 28.9 °F 78% 29.73 in 10.0 mi Calm Calm - 0.00 in   Overcast
5:53 AM 37.0 °F - 27.0 °F 67% 29.70 in 10.0 mi Calm Calm - N/A   Overcast
6:53 AM 37.9 °F 35.5 °F 26.1 °F 62% 29.69 in 10.0 mi Variable 3.5 mph - N/A   Overcast
7:53 AM 37.0 °F 33.3 °F 28.9 °F 73% 29.68 in 10.0 mi SE 4.6 mph - 0.00 in   Mostly Cloudy
8:53 AM 37.9 °F - 30.0 °F 73% 29.68 in 10.0 mi Calm Calm - 0.00 in   Overcast
9:53 AM 41.0 °F - 30.9 °F 67% 29.66 in 10.0 mi Calm Calm - N/A   Overcast
10:53 AM 44.1 °F 38.6 °F 34.0 °F 68% 29.66 in 10.0 mi ESE 10.4 mph - 0.00 in   Overcast
11:53 AM 44.1 °F 37.7 °F 34.0 °F 68% 29.65 in 10.0 mi East 12.7 mph - N/A   Overcast
12:53 PM 46.9 °F - 35.1 °F 63% 29.63 in 10.0 mi East 9.2 mph - 0.00 in   Mostly Cloudy
1:53 PM 48.2 °F - 35.6 °F 62% 29.57 in 10.0 mi ESE 8.1 mph - N/A   Mostly Cloudy
2:48 PM 44.6 °F 41.4 °F 35.6 °F 71% 29.60 in 10.0 mi East 5.8 mph - 0.00 in Rain , Thunderstorm Light Rain
2:53 PM 44.1 °F 39.5 °F 36.0 °F 73% 29.65 in 6.0 mi South 8.1 mph - 0.02 in Rain , Thunderstorm Rain
3:03 PM 42.8 °F 38.6 °F 35.6 °F 76% 29.63 in 2.5 mi South 6.9 mph 20.7 mph 0.05 in Rain Heavy Rain
3:10 PM 42.8 °F 39.3 °F 35.6 °F 76% 29.62 in 1.5 mi East 5.8 mph - 0.07 in Rain Rain
3:16 PM 41.0 °F 37.1 °F 35.6 °F 81% 29.62 in 3.0 mi ENE 5.8 mph - 0.07 in Rain Light Rain
3:29 PM 41.0 °F - 35.6 °F 81% 29.63 in 9.0 mi Calm Calm - 0.08 in Rain Light Rain
3:53 PM 42.1 °F - 37.0 °F 82% 29.66 in 10.0 mi Calm Calm - 0.08 in   Overcast
4:53 PM 42.1 °F - 37.0 °F 82% 29.67 in 10.0 mi Calm Calm - N/A   Overcast
5:53 PM 41.0 °F 37.1 °F 35.1 °F 79% 29.69 in 10.0 mi ESE 5.8 mph - N/A   Overcast
6:53 PM 42.1 °F 37.1 °F 34.0 °F 73% 29.73 in 10.0 mi SW 8.1 mph - N/A   Overcast
7:53 PM 41.0 °F 36.4 °F 34.0 °F 76% 29.76 in 10.0 mi SSW 6.9 mph - N/A   Overcast
8:53 PM 39.0 °F 32.3 °F 32.0 °F 76% 29.79 in 10.0 mi South 10.4 mph - N/A   Overcast
9:35 PM 37.4 °F 29.8 °F 32.0 °F 81% 29.77 in 10.0 mi South 11.5 mph - 0.00 in   Overcast
9:53 PM 37.0 °F 29.3 °F 32.0 °F 82% 29.81 in 10.0 mi South 11.5 mph 19.6 mph 0.00 in   Overcast
10:08 PM 37.4 °F 29.3 °F 32.0 °F 81% 29.78 in 10.0 mi South 12.7 mph - N/A   Overcast
10:53 PM 37.0 °F 29.8 °F 30.9 °F 79% 29.83 in 10.0 mi SSW 10.4 mph - 0.00 in   Overcast
11:53 PM 36.0 °F 29.6 °F 30.9 °F 82% 29.86 in 6.0 mi SSW 8.1 mph - N/A   Haze